This demonstration page uses our WeatherBlox Daily Observations layout. Learn more.

Left ArrowRight Arrow

39.51506, -84.39828

Hourly Observations for February 27, 2019

Temp ( °F °C ) Dew Point ( °F °C ) Humidity (%) Winds ( mph kmh ) Pressure ( in mb ) Visibility ( mi km ) Precip ( " mm )
12:15 am 00:15 Clear 29 -1.5 22 -5.5 74 74 NNE 6 9 30.33 1027 10 16 0.00 0.00
12:35 am 00:35 Clear 29 -1.8 22 -5.5 76 76 NE 7 11 30.32 1027 10 16 0.00 0.00
12:55 am 00:55 Clear 28 -2 22 -5.5 77 77 NE 5 7 30.31 1026 10 16 0.00 0.00
1:15 am 01:15 Clear 28 -2 22 -5.5 77 77 NE 6 9 30.31 1026 10 16 0.00 0.00
1:35 am 01:35 Clear 28 -2.3 22 -5.5 79 79 NE 5 7 30.30 1026 10 16 0.00 0.00
1:55 am 01:55 Clear 27 -2.8 22 -5.8 80 80 NE 3 6 30.29 1026 10 16 0.00 0.00
2:15 am 02:15 Clear 28 -2.5 22 -5.7 79 79 NE 3 6 30.28 1025 10 16 0.00 0.00
2:35 am 02:35 Clear 27 -2.7 22 -5.6 81 81 NNE 3 6 30.28 1025 10 16 0.00 0.00
2:55 am 02:55 Clear 27 -2.6 22 -5.5 81 81 N 3 6 30.27 1025 10 16 0.00 0.00
3:15 am 03:15 Clear 26 -3.4 21 -6 82 82 Calm 30.25 1025 10 16 0.00 0.00
3:35 am 03:35 Clear 27 -3 22 -5.6 82 82 Calm 30.24 1024 10 16 0.00 0.00
3:55 am 03:55 Clear 26 -3.1 22 -5.6 83 83 Calm 30.23 1024 10 16 0.00 0.00
4:15 am 04:15 Clear 26 -3.3 22 -5.5 85 85 Calm 30.23 1024 10 16 0.00 0.00
4:35 am 04:35 Clear 26 -3.5 22 -5.3 88 88 Calm 30.23 1024 10 16 0.00 0.00
4:55 am 04:55 Clear 26 -3.5 23 -5.1 89 89 Calm 30.23 1024 10 16 0.00 0.00
5:15 am 05:15 Clear 25 -3.9 22 -5.7 87 87 N 5 7 30.23 1024 10 16 0.00 0.00
5:35 am 05:35 Clear 25 -3.9 22 -5.8 87 87 N 6 9 30.23 1024 10 16 0.00 0.00
5:55 am 05:55 Clear 26 -3.2 22 -5.8 82 82 NNE 5 7 30.21 1023 10 16 0.00 0.00
6:15 am 06:15 Clear 26 -3.2 21 -5.9 82 82 NNE 5 7 30.21 1023 10 16 0.00 0.00
6:35 am 06:35 Clear 26 -3.3 21 -6 82 82 N 5 7 30.21 1023 10 16 0.00 0.00
6:55 am 06:55 Clear 26 -3.4 21 -6.1 82 82 NE 5 7 30.21 1023 10 16 0.00 0.00
7:15 am 07:15 Sunny 26 -3.6 21 -5.9 84 84 NNE 5 7 30.21 1023 10 16 0.00 0.00
7:35 am 07:35 Sunny 26 -3.4 21 -6 82 82 N 3 6 30.21 1023 10 16 0.00 0.00
7:55 am 07:55 Sunny 27 -2.9 22 -5.3 84 84 N 3 6 30.21 1023 10 16 0.00 0.00
8:15 am 08:15 Sunny 28 -2 23 -5.2 79 79 Calm 30.21 1023 10 16 0.00 0.00
8:35 am 08:35 Sunny 29 -1.4 22 -5.4 75 75 Calm 30.20 1023 10 16 0.00 0.00
8:55 am 08:55 Sunny 31 -0.5 22 -5.3 70 70 Calm 30.20 1023 10 16 0.00 0.00
9:15 am 09:15 Sunny 33 0.5 22 -5.4 65 65 Calm 30.19 1022 10 16 0.00 0.00
9:35 am 09:35 Sunny 35 1.5 23 -5.1 62 62 Calm 30.18 1022 10 16 0.00 0.00
9:55 am 09:55 Partly Cloudy 36 2.4 24 -4.6 60 60 S 5 7 30.17 1022 10 16 0.00 0.00
10:15 am 10:15 Partly Cloudy 38 3.4 24 -4.7 56 56 SSE 5 7 30.16 1021 10 16 0.00 0.00
10:35 am 10:35 Mostly Cloudy 40 4.5 24 -4.3 53 53 SSW 8 13 30.13 1020 10 16 0.00 0.00
10:55 am 10:55 Cloudy 43 5.9 25 -3.8 50 50 S 8 13 30.12 1020 10 16 0.00 0.00
11:15 am 11:15 Cloudy 45 7.3 26 -3.4 47 47 SSW 8 13 30.10 1019 10 16 0.00 0.00
11:35 am 11:35 Cloudy 46 8 27 -3 46 46 SW 8 13 30.08 1019 10 16 0.00 0.00
11:55 am 11:55 Cloudy 47 8.5 26 -3.1 44 44 SW 7 11 30.07 1018 10 16 0.00 0.00
12:15 pm 12:15 Cloudy 48 8.8 27 -2.7 45 45 SW 7 11 30.08 1019 10 16 0.00 0.00
12:35 pm 12:35 Cloudy 49 9.6 28 -2.2 44 44 SW 6 9 30.07 1018 10 16 0.00 0.00
12:55 pm 12:55 Cloudy 50 9.9 29 -1.8 44 44 SW 6 9 30.06 1018 10 16 0.00 0.00
1:15 pm 13:15 Cloudy 51 10.6 29 -1.5 43 43 SW 6 9 30.05 1018 10 16 0.00 0.00
1:35 pm 13:35 Cloudy 52 11 30 -1.1 43 43 SSW 8 13 30.04 1017 10 16 0.00 0.00
1:55 pm 13:55 Cloudy 53 11.6 30 -0.9 42 42 SW 12 19 30.02 1017 10 16 0.00 0.00
2:15 pm 14:15 Cloudy 53 11.6 31 -0.3 44 44 WSW 9 15 30.01 1016 10 16 0.00 0.00
2:35 pm 14:35 Cloudy 53 11.9 32 -0.1 44 44 WSW 9 15 30.01 1016 10 16 0.00 0.00
2:55 pm 14:55 Cloudy 53 11.7 32 0.2 45 45 W 8 13 30.00 1016 10 16 0.00 0.00
3:15 pm 15:15 Mostly Cloudy 54 12.1 34 0.9 47 47 WSW 7 11 29.99 1016 10 16 0.00 0.00
3:35 pm 15:35 Cloudy 54 12 35 1.9 50 50 W 6 9 29.99 1016 10 16 0.00 0.00
3:55 pm 15:55 Cloudy 53 11.4 36 2.3 54 54 WNW 8 13 30.00 1016 10 16 0.00 0.00
4:15 pm 16:15 Cloudy 52 11 36 2.4 56 56 WNW 9 15 30.00 1016 10 16 0.00 0.00
4:35 pm 16:35 Cloudy 51 10.6 36 2.2 56 56 W 10 17 30.00 1016 10 16 0.00 0.00
4:55 pm 16:55 Cloudy 50 10.1 36 2.1 58 58 NW 9 15 30.00 1016 10 16 0.00 0.00
5:15 pm 17:15 Cloudy 49 9.6 35 1.6 58 58 NW 14 22 30.01 1016 10 16 0.00 0.00
5:35 pm 17:35 Cloudy 48 8.8 34 1.2 59 59 NW 14 22 30.02 1017 10 16 0.00 0.00
5:55 pm 17:55 Cloudy 47 8.3 33 0.6 59 59 NW 13 20 30.03 1017 10 16 0.00 0.00
6:15 pm 18:15 Cloudy 46 7.8 33 0.6 61 61 NW 13 20 30.04 1017 10 16 0.00 0.00
6:35 pm 18:35 Cloudy 45 7.2 32 0 61 61 NNW 10 17 30.06 1018 10 16 0.00 0.00
6:55 pm 18:55 Cloudy 44 6.8 32 0.1 63 63 NNW 8 13 30.07 1018 10 16 0.00 0.00
7:15 pm 19:15 Cloudy 43 6.2 32 -0.1 64 64 NW 9 15 30.08 1019 10 16 0.00 0.00
7:35 pm 19:35 Cloudy 42 5.8 32 -0.1 66 66 NNW 7 11 30.09 1019 10 16 0.00 0.00
7:55 pm 19:55 Cloudy 41 5.1 32 -0.1 69 69 N 9 15 30.10 1019 10 16 0.00 0.00
8:15 pm 20:15 Cloudy 40 4.4 30 -1 68 68 NNW 8 13 30.12 1020 10 16 0.00 0.00
8:35 pm 20:35 Cloudy 39 4 29 -1.4 68 68 NNW 14 22 30.13 1020 10 16 0.00 0.00
8:55 pm 20:55 Cloudy 38 3.6 29 -1.6 69 69 NW 12 19 30.15 1021 10 16 0.00 0.00
9:15 pm 21:15 Cloudy 38 3.2 28 -2 69 69 NW 10 17 30.15 1021 10 16 0.00 0.00
9:35 pm 21:35 Cloudy 37 3 28 -2.1 69 69 NNW 10 17 30.15 1021 10 16 0.00 0.00
9:55 pm 21:55 Cloudy 37 2.8 28 -2.1 70 70 NNW 8 13 30.15 1021 10 16 0.00 0.00
10:15 pm 22:15 Cloudy 37 2.5 28 -2.4 70 70 NW 13 20 30.16 1021 10 16 0.00 0.00
10:35 pm 22:35 Cloudy 36 2.2 27 -2.7 70 70 NNW 13 20 30.16 1021 10 16 0.00 0.00
10:55 pm 22:55 Cloudy 35 1.8 27 -2.9 71 71 NNW 12 19 30.16 1021 10 16 0.00 0.00
11:15 pm 23:15 Cloudy 35 1.6 27 -2.9 72 72 NNW 8 13 30.17 1022 10 16 0.00 0.00
11:35 pm 23:35 Cloudy 34 1.3 26 -3.2 72 72 NNW 9 15 30.17 1022 10 16 0.00 0.00
11:55 pm 23:55 Cloudy 34 1.1 26 -3.3 73 73 NW 6 9 30.18 1022 10 16 0.00 0.00

Powered by AerisWeather